HORN21 EGUL-EGUL

Flight info

Callsign HORN21
Flight time N/A
Altitude 40000
Route MAM DCT ROVNI DCT EVTAR DCT GOMOT DCT BALID DCT GIVEM DCT ELNAB DCT MAM
Aircraft F18G/M-SGRD/LB2

Departure

Time 2026-04-21 13:27
Airport RAF Lakenheath (EGUL)

Arrival

Time N/A
Airport RAF Lakenheath (EGUL)
Time Latitude Longitude Altitude Speed Heading
2026-04-21 13:21 52.40026 0.55744 35 ft 0 kts 145°
2026-04-21 13:22 52.40017 0.55768 35 ft 5 kts 40°
2026-04-21 13:22 52.40051 0.55761 35 ft 4 kts 348°
2026-04-21 13:23 52.40061 0.55750 35 ft 1 kts 276°
2026-04-21 13:23 52.40049 0.55661 35 ft 13 kts 258°
2026-04-21 13:23 52.40037 0.55535 34 ft 10 kts 264°
2026-04-21 13:23 52.40027 0.55446 34 ft 6 kts 258°
2026-04-21 13:24 52.40021 0.55389 34 ft 4 kts 261°
2026-04-21 13:24 52.40009 0.55139 34 ft 19 kts 274°
2026-04-21 13:24 52.40070 0.54942 34 ft 19 kts 300°
2026-04-21 13:25 52.40123 0.54776 34 ft 14 kts 303°
2026-04-21 13:25 52.40173 0.54652 35 ft 16 kts 292°
2026-04-21 13:25 52.40224 0.54506 36 ft 12 kts 321°
2026-04-21 13:25 52.40284 0.54523 36 ft 7 kts 46°
2026-04-21 13:26 52.40338 0.54654 36 ft 0 kts 56°
2026-04-21 13:27 52.40561 0.55203 34 ft 165 kts 55°
2026-04-21 13:27 52.41533 0.57577 1290 ft 312 kts 58°
2026-04-21 13:27 52.42730 0.60414 6948 ft 267 kts 56°
2026-04-21 13:28 52.43973 0.63264 12457 ft 390 kts 57°
2026-04-21 13:28 52.45817 0.67011 15611 ft 434 kts 43°
2026-04-21 13:28 52.46506 0.68138 12068 ft 510 kts 139°
2026-04-21 13:28 52.43461 0.70855 8467 ft 602 kts 216°
2026-04-21 13:29 52.41305 0.65642 15431 ft 568 kts 241°
2026-04-21 13:29 52.38472 0.61925 19392 ft 557 kts 201°
2026-04-21 13:29 52.37273 0.61066 20551 ft 565 kts 203°
2026-04-21 13:29 52.34099 0.57824 23096 ft 616 kts 218°
2026-04-21 13:30 52.30783 0.52952 25511 ft 669 kts 223°
2026-04-21 13:30 52.27105 0.47651 28062 ft 745 kts 224°
2026-04-21 13:30 52.22991 0.41737 30818 ft 829 kts 225°
2026-04-21 13:30 52.18742 0.35335 33175 ft 777 kts 232°
2026-04-21 13:31 52.15943 0.28606 35055 ft 700 kts 239°
2026-04-21 13:31 52.13138 0.21720 37035 ft 760 kts 238°
2026-04-21 13:31 52.10390 0.14918 39108 ft 674 kts 238°
2026-04-21 13:31 52.07955 0.08870 40660 ft 606 kts 238°
2026-04-21 13:32 52.05858 0.03146 41824 ft 590 kts 245°
2026-04-21 13:32 52.03991 -0.02981 42335 ft 625 kts 245°
2026-04-21 13:32 52.01980 -0.09522 42307 ft 674 kts 245°
2026-04-21 13:32 51.99801 -0.16518 42291 ft 736 kts 244°
2026-04-21 13:33 51.97344 -0.24316 42276 ft 771 kts 244°
2026-04-21 13:33 51.95451 -0.31931 41931 ft 713 kts 257°
2026-04-21 13:33 51.94327 -0.39545 41441 ft 676 kts 258°
2026-04-21 13:33 51.93220 -0.46769 41108 ft 648 kts 257°
2026-04-21 13:34 51.92124 -0.53719 40785 ft 627 kts 257°
2026-04-21 13:34 51.91483 -0.60586 40200 ft 611 kts 268°
2026-04-21 13:34 51.91141 -0.67375 39794 ft 601 kts 266°
2026-04-21 13:34 51.90703 -0.74091 39366 ft 594 kts 265°
2026-04-21 13:35 51.90256 -0.80820 38920 ft 625 kts 265°
2026-04-21 13:35 51.89788 -0.87979 38287 ft 633 kts 265°
2026-04-21 13:35 51.89337 -0.94915 37672 ft 606 kts 265°
2026-04-21 13:35 51.88893 -1.01622 37094 ft 610 kts 265°
2026-04-21 13:36 51.88428 -1.08790 37904 ft 659 kts 265°
2026-04-21 13:36 51.87959 -1.16270 40374 ft 651 kts 265°
2026-04-21 13:36 51.87527 -1.23080 42800 ft 570 kts 265°
2026-04-21 13:36 51.87118 -1.29302 42976 ft 549 kts 265°
2026-04-21 13:37 51.86714 -1.35453 41815 ft 549 kts 265°
2026-04-21 13:37 51.86313 -1.41580 40731 ft 544 kts 265°
2026-04-21 13:37 51.85922 -1.47542 39718 ft 523 kts 265°
2026-04-21 13:37 51.85543 -1.53173 38746 ft 484 kts 265°
2026-04-21 13:38 51.85181 -1.58382 37684 ft 450 kts 265°
2026-04-21 13:38 51.84826 -1.63228 36724 ft 420 kts 266°
2026-04-21 13:38 51.84465 -1.67812 35841 ft 412 kts 266°
2026-04-21 13:38 51.84081 -1.72419 34962 ft 409 kts 266°
2026-04-21 13:39 51.83679 -1.76905 34084 ft 398 kts 266°
2026-04-21 13:39 51.83246 -1.81606 33064 ft 462 kts 265°
2026-04-21 13:39 51.82932 -1.85122 32335 ft 483 kts 265°
2026-04-21 13:39 51.82442 -1.90533 31259 ft 488 kts 265°
2026-04-21 13:40 51.81950 -1.96114 29859 ft 536 kts 266°
2026-04-21 13:40 51.82279 -2.04279 26337 ft 504 kts 282°
2026-04-21 13:40 51.82865 -2.09485 23986 ft 441 kts 283°
2026-04-21 13:40 51.83275 -2.12766 22278 ft 467 kts 284°
2026-04-21 13:41 51.84010 -2.18136 20509 ft 480 kts 284°
2026-04-21 13:41 51.84678 -2.23019 19743 ft 414 kts 284°
2026-04-21 13:41 51.85253 -2.27317 19076 ft 372 kts 284°
2026-04-21 13:41 51.85772 -2.31245 18458 ft 344 kts 284°
2026-04-21 13:42 51.86258 -2.34909 17823 ft 325 kts 284°
2026-04-21 13:42 51.86725 -2.38404 17236 ft 312 kts 284°
2026-04-21 13:42 51.87195 -2.41872 16679 ft 339 kts 284°
2026-04-21 13:42 51.87120 -2.46026 16331 ft 428 kts 266°
2026-04-21 13:43 51.86847 -2.51639 15873 ft 585 kts 266°
2026-04-21 13:43 51.86542 -2.58016 15396 ft 544 kts 266°
2026-04-21 13:43 51.86262 -2.63896 15025 ft 508 kts 266°
2026-04-21 13:43 51.86000 -2.69474 13170 ft 505 kts 265°
2026-04-21 13:44 51.85736 -2.75371 10707 ft 540 kts 265°
2026-04-21 13:44 51.85476 -2.81487 8185 ft 551 kts 265°
2026-04-21 13:44 51.85229 -2.87487 7120 ft 492 kts 265°
2026-04-21 13:44 51.85011 -2.92514 7473 ft 412 kts 265°
2026-04-21 13:45 51.84896 -2.96969 7432 ft 399 kts 270°
2026-04-21 13:45 51.85007 -3.01291 6328 ft 278 kts 242°
2026-04-21 13:45 51.84548 -3.06041 3161 ft 493 kts 264°
2026-04-21 13:45 51.85176 -3.12210 1150 ft 612 kts 301°
2026-04-21 13:46 51.87979 -3.18020 1347 ft 682 kts 332°
2026-04-21 13:46 51.92478 -3.18520 3024 ft 664 kts
2026-04-21 13:46 51.94269 -3.14511 2472 ft 508 kts 112°
2026-04-21 13:46 51.91281 -3.12269 1759 ft 544 kts 150°
2026-04-21 13:47 51.87404 -3.10642 1206 ft 574 kts 151°
2026-04-21 13:47 51.88015 -3.05669 1716 ft 416 kts 60°
2026-04-21 13:47 51.90605 -3.04744 1246 ft 431 kts 328°
2026-04-21 13:47 51.92632 -3.04740 2887 ft 353 kts 15°
2026-04-21 13:48 51.95123 -3.04449 2487 ft 290 kts 346°
2026-04-21 13:48 51.97277 -3.07529 2159 ft 570 kts 317°
2026-04-21 13:48 51.99963 -3.12539 3980 ft 228 kts 360°
2026-04-21 13:48 51.98639 -3.09191 4222 ft 392 kts 134°
2026-04-21 13:49 51.96406 -3.06779 1543 ft 354 kts 138°
2026-04-21 13:49 51.93879 -3.04682 1843 ft 509 kts 191°
2026-04-21 13:49 51.92115 -3.09593 3657 ft 514 kts 253°
2026-04-21 13:49 51.92582 -3.13378 2980 ft 371 kts 306°
2026-04-21 13:50 51.92445 -3.15461 2756 ft 305 kts 150°
2026-04-21 13:50 51.90201 -3.12768 1193 ft 493 kts 138°
2026-04-21 13:50 51.87768 -3.10970 1595 ft 459 kts 183°
2026-04-21 13:50 51.85276 -3.11390 9522 ft 451 kts 188°
2026-04-21 13:51 51.85206 -3.15766 7498 ft 418 kts 281°
2026-04-21 13:51 51.85646 -3.19939 7143 ft 339 kts 278°
2026-04-21 13:51 51.85892 -3.23506 5315 ft 310 kts 267°
2026-04-21 13:51 51.85512 -3.27232 1791 ft 423 kts 248°
2026-04-21 13:52 51.83090 -3.31928 2183 ft 529 kts 254°
2026-04-21 13:52 51.84739 -3.37393 3008 ft 622 kts 269°
2026-04-21 13:52 51.86937 -3.42376 3119 ft 621 kts 308°
2026-04-21 13:52 51.86404 -3.47566 1508 ft 486 kts 24°
2026-04-21 13:53 51.85693 -3.50979 4026 ft 431 kts 213°
2026-04-21 13:53 51.82826 -3.49905 3575 ft 349 kts 92°
2026-04-21 13:53 51.79568 -3.47830 6539 ft 361 kts 150°
2026-04-21 13:53 51.79813 -3.47085 19830 ft 430 kts 36°
2026-04-21 13:54 51.81106 -3.43038 22330 ft 534 kts 127°
2026-04-21 13:54 51.78959 -3.37541 24295 ft 633 kts 105°
2026-04-21 13:54 51.80032 -3.30555 25438 ft 701 kts 44°
2026-04-21 13:54 51.84430 -3.27205 30085 ft 756 kts 14°
2026-04-21 13:55 51.89801 -3.24533 33285 ft 844 kts 13°
2026-04-21 13:55 51.95718 -3.21747 35872 ft 926 kts 13°
2026-04-21 13:55 52.02122 -3.18890 38536 ft 974 kts 13°
2026-04-21 13:55 52.08733 -3.16074 40913 ft 987 kts 13°
2026-04-21 13:56 52.15345 -3.13340 42503 ft 1001 kts 13°
2026-04-21 13:56 52.22158 -3.10560 42601 ft 1017 kts 13°
2026-04-21 13:56 52.29065 -3.07755 42474 ft 1031 kts 13°
2026-04-21 13:56 52.36078 -3.04923 42326 ft 1041 kts 13°
2026-04-21 13:57 52.43125 -3.02093 42156 ft 1046 kts 13°
2026-04-21 13:57 52.50213 -2.99262 41990 ft 1048 kts 13°
2026-04-21 13:57 52.57296 -2.96448 41829 ft 1049 kts 13°
2026-04-21 13:57 52.64408 -2.93638 41664 ft 1049 kts 13°
2026-04-21 13:58 52.71506 -2.90848 41496 ft 1049 kts 13°
2026-04-21 13:58 52.78607 -2.88073 41331 ft 1049 kts 13°
2026-04-21 13:58 52.85711 -2.85312 41164 ft 1049 kts 12°
2026-04-21 13:58 52.92816 -2.82567 40991 ft 1048 kts 12°
2026-04-21 13:59 52.99932 -2.79833 40825 ft 1048 kts 12°
2026-04-21 13:59 53.07035 -2.77121 40662 ft 1048 kts 12°
2026-04-21 13:59 53.14141 -2.74425 40499 ft 1048 kts 12°
2026-04-21 13:59 53.21255 -2.71743 40335 ft 1048 kts 12°
2026-04-21 14:00 53.28378 -2.69075 40172 ft 1048 kts 12°
2026-04-21 14:00 53.35487 -2.66430 40014 ft 1047 kts 12°
2026-04-21 14:00 53.42604 -2.63799 39853 ft 1047 kts 12°
2026-04-21 14:00 53.49475 -2.61272 39688 ft 923 kts 12°
2026-04-21 14:01 53.55167 -2.59164 39313 ft 767 kts 12°
2026-04-21 14:01 53.60040 -2.57328 39032 ft 694 kts 12°
2026-04-21 14:01 53.65004 -2.55860 38512 ft 787 kts
2026-04-21 14:01 53.70706 -2.55664 37231 ft 777 kts 359°
2026-04-21 14:02 53.75826 -2.55479 36138 ft 698 kts 359°
2026-04-21 14:02 53.80424 -2.55264 35187 ft 644 kts 359°
2026-04-21 14:02 53.84759 -2.55017 34284 ft 605 kts 359°
2026-04-21 14:03 53.92843 -2.54456 32383 ft 563 kts 360°
2026-04-21 14:03 53.96721 -2.54156 31514 ft 552 kts 360°
2026-04-21 14:03 54.00529 -2.53850 30693 ft 544 kts 360°
2026-04-21 14:03 54.04396 -2.53942 30463 ft 587 kts 349°
2026-04-21 14:04 54.08645 -2.55707 31112 ft 676 kts 343°
2026-04-21 14:04 54.13617 -2.58047 31568 ft 811 kts 342°
2026-04-21 14:04 54.19475 -2.60980 31987 ft 939 kts 342°
2026-04-21 14:04 54.25950 -2.64391 32431 ft 994 kts 341°
2026-04-21 14:05 54.32597 -2.68044 32884 ft 1010 kts 341°
2026-04-21 14:05 54.39311 -2.71884 33359 ft 1027 kts 340°
2026-04-21 14:05 54.45539 -2.75554 33487 ft 825 kts 340°
2026-04-21 14:05 54.50456 -2.78435 32154 ft 682 kts 340°
2026-04-21 14:06 54.54655 -2.80876 31057 ft 597 kts 340°
2026-04-21 14:06 54.58411 -2.83052 30011 ft 547 kts 340°
2026-04-21 14:06 54.61912 -2.85108 28960 ft 517 kts 340°
2026-04-21 14:06 54.65242 -2.87115 27997 ft 498 kts 340°
2026-04-21 14:07 54.68456 -2.89112 27109 ft 484 kts 340°
2026-04-21 14:07 54.71579 -2.91115 26277 ft 475 kts 340°
2026-04-21 14:07 54.74645 -2.93140 25482 ft 469 kts 340°
2026-04-21 14:07 54.77667 -2.95193 24723 ft 465 kts 340°
2026-04-21 14:08 54.80652 -2.97273 23975 ft 462 kts 340°
2026-04-21 14:08 54.83617 -2.99380 23118 ft 459 kts 340°
2026-04-21 14:08 54.86597 -3.01519 22279 ft 462 kts 340°
2026-04-21 14:08 54.89509 -3.03632 21473 ft 446 kts 339°
2026-04-21 14:09 54.92294 -3.05672 20731 ft 434 kts 339°
2026-04-21 14:09 54.95000 -3.07674 20017 ft 400 kts 339°
2026-04-21 14:09 54.97460 -3.09526 19382 ft 371 kts 339°
2026-04-21 14:09 54.99753 -3.11276 18823 ft 349 kts 339°
2026-04-21 14:10 55.02016 -3.13121 17985 ft 417 kts 338°
2026-04-21 14:10 55.05083 -3.15193 17261 ft 492 kts 342°
2026-04-21 14:10 55.08527 -3.17442 16611 ft 606 kts 341°
2026-04-21 14:10 55.13109 -3.20381 15772 ft 810 kts 341°
2026-04-21 14:11 55.18099 -3.23593 14985 ft 628 kts 341°
2026-04-21 14:11 55.21595 -3.25925 14384 ft 469 kts 341°
2026-04-21 14:11 55.24354 -3.27820 13833 ft 391 kts 341°
2026-04-21 14:11 55.26733 -3.29488 13355 ft 349 kts 341°
2026-04-21 14:12 55.28896 -3.31029 12921 ft 324 kts 341°
2026-04-21 14:12 55.30930 -3.32488 12521 ft 309 kts 341°
2026-04-21 14:12 55.32888 -3.33891 12142 ft 299 kts 341°
2026-04-21 14:12 55.34790 -3.35263 11782 ft 292 kts 341°
2026-04-21 14:13 55.36658 -3.36621 11429 ft 288 kts 341°
2026-04-21 14:13 55.38650 -3.38045 11053 ft 395 kts 341°
2026-04-21 14:13 55.41950 -3.40251 10475 ft 548 kts 341°
2026-04-21 14:13 55.45920 -3.42857 9685 ft 716 kts 341°
2026-04-21 14:14 55.50724 -3.45846 8207 ft 571 kts 347°
2026-04-21 14:14 55.54028 -3.47372 6000 ft 414 kts 348°
2026-04-21 14:14 55.56610 -3.48512 5488 ft 369 kts 349°
2026-04-21 14:14 55.59397 -3.49688 5413 ft 521 kts 349°
2026-04-21 14:15 55.63648 -3.51614 7456 ft 678 kts 348°
2026-04-21 14:15 55.68869 -3.53822 8112 ft 825 kts 348°
2026-04-21 14:15 55.73222 -3.55720 7983 ft 486 kts 348°
2026-04-21 14:15 55.76001 -3.56999 6668 ft 365 kts 349°
2026-04-21 14:16 55.78259 -3.58005 5550 ft 308 kts 349°
2026-04-21 14:16 55.80186 -3.58843 4937 ft 264 kts 351°
2026-04-21 14:16 55.81907 -3.59160 4079 ft 232 kts
2026-04-21 14:16 55.83274 -3.58939 3811 ft 180 kts 16°
2026-04-21 14:17 55.84631 -3.58362 3283 ft 227 kts 26°
2026-04-21 14:17 55.86476 -3.56629 2842 ft 356 kts 32°
2026-04-21 14:17 55.88316 -3.53865 3022 ft 316 kts 37°
2026-04-21 14:17 55.90036 -3.51373 2052 ft 294 kts 49°
2026-04-21 14:18 55.91113 -3.48827 1698 ft 230 kts 58°
2026-04-21 14:18 55.91885 -3.46630 1289 ft 191 kts 60°
2026-04-21 14:18 55.92503 -3.44860 876 ft 149 kts 62°
2026-04-21 14:18 55.92974 -3.43250 737 ft 164 kts 62°
2026-04-21 14:19 55.93601 -3.41371 429 ft 185 kts 58°
2026-04-21 14:19 55.94248 -3.39461 208 ft 158 kts 58°
2026-04-21 14:19 55.94723 -3.38077 118 ft 107 kts 59°
2026-04-21 14:19 55.95038 -3.37158 110 ft 61 kts 60°
2026-04-21 14:20 55.95219 -3.36597 109 ft 42 kts 58°
2026-04-21 14:20 55.95190 -3.36348 106 ft 25 kts 147°